Вернуться в каталог

COSMOS 1922

АктивенВоенныеHEO
NORAD 18881·PAYLOAD·🇷🇺 Russia

Запущен Feb 26, 1988 с Plesetsk Cosmodrome

Loading…

Ближайшие Пролёты (ближайшие 24 часа)

TLE

СвежийSource: Space-Track

Эпоха: Sep 14, 2026, 12:43 UTC

1 18881U 88013A   26257.53021686  .00000418  00000-0  00000-0 0  9992
2 18881  68.7821  67.0630 5927026  41.8247 350.7792  2.00835904282320

Отслеживайте COSMOS 1922 в реальном времени с AllMySat

Download on the App Store